Location: Izdebno
(52.6670°N, 16.2170°E)
Time: 18:03:07
(UTC+01:00)

Transit 2A - Pass Details

Date: 07 February 2023
Orbit: 591 x 964 km, 66.7° (Epoch: 21 March)

Event Time Altitude Azimuth Distance (km) Brightness Sun altitude
Rises 18:32:48 0° 263° (W) 3,146 11.1 -15.6°
Reaches altitude 10° 18:35:23 10° 275° (W) 2,289 9.8 -16.0°
Maximum altitude 18:39:56 29° 335° (NNW) 1,471 7.7 -16.7°
Enters shadow 18:44:50 10° 34° (NNE) 2,492 8.3 -17.4°
Drops below altitude 10° 18:44:55 10° 34° (NE) 2,516 - -17.4°
Sets 18:47:53 0° 46° (NE) 3,515 - -17.9°
